Location: Beetenbrück
(52.8113°N, 9.5946°E)
Time: 22:07:26
(UTC+00:00)

Terra - Pass Details

Date: 14 April 2026
Orbit: 688 x 691 km, 97.9° (Epoch: 12 May)

Event Time Altitude Azimuth Distance (km) Brightness Sun altitude
Exits shadow 19:14:39 - 155° (SSE) 2,600 4.3 -8.5°
Reaches altitude 10° 19:15:47 10° 154° (SSE) 2,139 3.8 -8.7°
Maximum altitude 19:20:27 69° 71° (ENE) 741 1.8 -9.3°
Drops below altitude 10° 19:25:08 10° 349° (N) 2,153 5.0 -9.9°
Sets 19:27:23 0° 348° (NNW) 3,074 5.8 -10.2°
